Terminal Aerodrome Forecast
Issued by NWS Denver/Boulder, CO

Home | Current Version | Previous Version | Text Only | Print | Product List | Glossary On
Versions: 1 2 3 4 5 6 7 8 9 10 11 12 13 14 15 16 17 18 19 20 21 22 23 24 25 26 27 28 29 30 31 32 33 34 35 36 37 38 39 40 41 42 43 44 45 46 47 48 49 50
751
FTUS45 KBOU 260900 AAB
TAFDEN
TAF AMD
KDEN 260900Z 2609/2712 VRB03KT P6SM FEW080 SCT140 BKN200
     FM261500 10006KT P6SM SCT060 BKN100
     FM261900 04010KT P6SM VCTS BKN050CB OVC090
      TEMPO 2620/2624 VRB20G30KT -TSRA BKN040CB
     FM270000 02010KT P6SM VCTS SCT040CB OVC070
      TEMPO 2700/2702 -SHRA BKN030
     FM270200 36009KT P6SM -SHRA BKN012 OVC025=

USA.gov is the U.S. government's official web portal to all federal, state and local government web resources and services.